2023/01/30 00:00:00,143.7,-2.5
2023/01/30 00:10:00,143.5,-2.3
2023/01/30 00:20:00,143.5,-2.6
2023/01/30 00:30:00,143.3,-2.5
2023/01/30 00:40:00,143.2,-2.5
2023/01/30 00:50:00,143.2,-2.5
2023/01/30 01:00:00,143.0,-2.4
2023/01/30 01:10:00,143.0,-2.7
2023/01/30 01:20:00,142.9,-3.2
2023/01/30 01:30:00,142.7,-3.3
2023/01/30 01:40:00,142.6,-3.4
2023/01/30 01:50:00,142.5,-3.3
2023/01/30 02:00:00,142.5,-3.7
2023/01/30 02:10:00,142.4,-4.0
2023/01/30 02:20:00,142.3,-4.5
2023/01/30 02:30:00,142.2,-4.7
2023/01/30 02:40:00,142.2,-5.2
2023/01/30 02:50:00,142.1,-5.2
2023/01/30 03:00:00,142.1,-5.7
2023/01/30 03:10:00,142.1,-5.6
2023/01/30 03:20:00,142.0,-5.7
2023/01/30 03:30:00,142.0,-5.7
2023/01/30 03:40:00,142.0,-5.2
2023/01/30 03:50:00,141.9,-4.9
2023/01/30 04:00:00,141.8,-4.8
2023/01/30 04:10:00,141.8,-4.6
2023/01/30 04:20:00,141.8,-4.5
2023/01/30 04:30:00,141.7,-4.1
2023/01/30 04:40:00,141.7,-3.8
2023/01/30 04:50:00,142.0,-3.5
2023/01/30 05:00:00,142.2,-3.4
2023/01/30 05:10:00,142.3,-3.2
2023/01/30 05:20:00,142.3,-3.3
2023/01/30 05:30:00,142.4,-3.1
2023/01/30 05:40:00,142.8,-3.1
2023/01/30 05:50:00,143.3,-2.6
2023/01/30 06:00:00,143.5,-2.9
2023/01/30 06:10:00,143.6,-2.0
2023/01/30 06:20:00,143.5,-2.6
2023/01/30 06:30:00,143.4,-2.2
2023/01/30 06:40:00,143.4,-2.3
2023/01/30 06:50:00,143.4,-1.9
2023/01/30 07:00:00,143.4,-2.2
2023/01/30 07:10:00,143.4,-1.9
2023/01/30 07:20:00,143.4,-1.3
2023/01/30 07:30:00,143.2,-1.2
2023/01/30 07:40:00,143.2,-1.6
2023/01/30 07:50:00,143.1,-1.0
2023/01/30 08:00:00,143.6,-1.1
2023/01/30 08:10:00,144.0,-1.0
2023/01/30 08:20:00,144.1,-1.1
2023/01/30 08:30:00,145.2,-0.8
2023/01/30 08:40:00,146.0,-1.1
2023/01/30 08:50:00,147.0,-0.7
2023/01/30 09:00:00,147.5,-0.7
2023/01/30 09:10:00,147.5,-0.4
2023/01/30 09:20:00,147.6,-0.5
2023/01/30 09:30:00,147.6,-0.2
2023/01/30 09:40:00,147.8,-0.2
2023/01/30 09:50:00,148.1,-0.4
2023/01/30 10:00:00,148.5, 0.0
2023/01/30 10:10:00,148.6, 0.2
2023/01/30 10:20:00,148.3, 0.4
2023/01/30 10:30:00,148.7, 0.5
2023/01/30 10:40:00,148.7, 0.6
2023/01/30 10:50:00,148.9, 0.3
2023/01/30 11:00:00,148.9, 0.3
2023/01/30 11:10:00,149.0, 0.4
2023/01/30 11:20:00,149.6, 0.2
2023/01/30 11:30:00,149.7, 0.4
2023/01/30 11:40:00,150.0, 0.0
2023/01/30 11:50:00,150.4, 0.3
2023/01/30 12:00:00,151.0, 0.1
2023/01/30 12:10:00,151.2, 0.1
2023/01/30 12:20:00,151.5, 0.0
2023/01/30 12:30:00,151.8, 0.2
2023/01/30 12:40:00,152.1, 0.4
2023/01/30 12:50:00,152.2, 0.0
2023/01/30 13:00:00,152.6, 0.2
2023/01/30 13:10:00,153.5, 0.2
2023/01/30 13:20:00,153.9, 0.2
2023/01/30 13:30:00,153.9, 0.3
2023/01/30 13:40:00,154.6, 0.4
2023/01/30 13:50:00,154.7, 0.6
2023/01/30 14:00:00,154.6, 0.6
2023/01/30 14:10:00,154.5, 0.4
2023/01/30 14:20:00,154.4, 0.7
2023/01/30 14:30:00,154.2, 0.7
2023/01/30 14:40:00,154.2, 0.6
2023/01/30 14:50:00,154.2, 0.6
2023/01/30 15:00:00,154.0, 0.6
2023/01/30 15:10:00,153.8, 1.0
2023/01/30 15:20:00,153.6, 0.6
2023/01/30 15:30:00,153.5, 0.5
2023/01/30 15:40:00,153.3, 0.4
2023/01/30 15:50:00,153.2, 0.3
2023/01/30 16:00:00,153.2, 0.2
2023/01/30 16:10:00,153.2, 0.3
2023/01/30 16:20:00,153.2, 0.3
2023/01/30 16:30:00,153.7, 0.1
2023/01/30 16:40:00,154.1, 0.1
2023/01/30 16:50:00,154.6,-0.2
2023/01/30 17:00:00,154.5,-0.2
2023/01/30 17:10:00,154.3,-0.8
2023/01/30 17:20:00,154.1,-0.1
2023/01/30 17:30:00,154.0,-0.2
2023/01/30 17:40:00,153.8,-0.3
2023/01/30 17:50:00,153.9,-0.4
2023/01/30 18:00:00,154.0,-0.4
2023/01/30 18:10:00,154.4,-1.1
2023/01/30 18:20:00,154.9,-0.8
2023/01/30 18:30:00,154.8,-0.9
2023/01/30 18:40:00,155.2,-0.7
2023/01/30 18:50:00,155.2,-0.7
2023/01/30 19:00:00,155.0,-0.7
2023/01/30 19:10:00,155.3,-0.9
2023/01/30 19:20:00,155.3,-1.1
2023/01/30 19:30:00,155.3,-1.0
2023/01/30 19:40:00,155.3,-0.7
2023/01/30 19:50:00,155.2,-1.1
2023/01/30 20:00:00,155.0,-1.2
2023/01/30 20:10:00,154.9,-1.3
2023/01/30 20:20:00,154.7,-0.9
2023/01/30 20:30:00,154.6,-1.2
2023/01/30 20:40:00,154.5,-1.1
2023/01/30 20:50:00,154.4,-1.1
2023/01/30 21:00:00,154.4,-1.1
2023/01/30 21:10:00,154.2,-1.3
2023/01/30 21:20:00,154.2,-1.3
2023/01/30 21:30:00,154.2,-1.2
2023/01/30 21:40:00,154.1,-1.1
2023/01/30 21:50:00,153.9,-1.2
2023/01/30 22:00:00,153.8,-1.4
2023/01/30 22:10:00,154.0,-1.2
2023/01/30 22:20:00,154.2,-1.1
2023/01/30 22:30:00,154.1,-1.4
2023/01/30 22:40:00,154.1,-1.3
2023/01/30 22:50:00,153.9,-1.2
2023/01/30 23:00:00,153.6,-1.6
2023/01/30 23:10:00,153.4,-1.7
2023/01/30 23:20:00,153.3,-1.7
2023/01/30 23:30:00,153.2,-1.2
2023/01/30 23:40:00,153.3,-1.8
2023/01/30 23:50:00,153.5,-1.7
